#timestamp,LO_Frequency,Hit 
1505998815.7,286046996.6,N
1505998835.5,286046995.1,N
1505998855.3,286046995.5,N
1505998875.1,286046992.8,N
1505998895.9,286046995.9,N
1505998915.7,286046995.1,N
1505998935.5,286046996.6,N
1505998955.4,286046998.5,N
1505998975.2,286046999.7,N
1505998995.0,286046998.5,N
1505998995.9,286046998.5,N
1505999015.8,286047000.5,N
1505999035.6,286046998.3,N
1505999055.4,286046999.0,N
1505999075.3,286046998.3,N
1505999095.1,286047001.1,N
1505999115.8,286047000.9,N
1505999135.7,286046996.8,N
1505999155.5,286046999.5,N
1505999175.3,286047000.8,N
1505999195.2,286047002.3,N
1505999215.9,286047002.6,N
1505999235.7,286046998.9,N
1505999255.6,286046999.0,N
1505999275.4,286047001.1,N
1505999295.2,286046996.1,N
1505999315.0,286046995.6,N
1505999315.9,286046995.6,N
1505999335.8,286046999.1,N
1505999355.6,286047000.9,N
1505999375.4,286047001.2,N
1505999395.3,286046990.6,P
1505999415.1,286046993.3,N
1505999435.8,286046994.2,N
1505999455.7,286046995.1,N
1505999475.5,286046997.6,N
1505999495.3,286046999.2,N
1505999515.2,286047000.9,N
1505999535.9,286046999.9,N
1505999555.7,286046999.9,N
1505999575.6,286047000.6,N
1505999595.4,286046999.6,N
1505999615.2,286046993.4,N
1505999635.1,286046995.3,N
1505999636.0,286046995.3,N
1505999655.8,286046997.3,N
1505999675.6,286046999.3,N
1505999695.4,286046999.6,N
1505999715.3,286046997.5,N
1505999735.1,286046997.1,N
1505999755.8,286046998.0,N
1505999775.7,286046998.9,N
1505999795.5,286046998.3,N
1505999815.3,286046998.2,N
1505999835.2,286046999.2,N
1505999855.9,286046999.4,N
1505999875.7,286046999.1,N
1505999895.6,286046999.4,N
1505999915.4,286046999.1,N
1505999935.2,286046999.2,N
1505999955.0,286046996.5,N
1505999956.0,286046996.5,N
1505999975.8,286046999.6,N
1505999995.6,286046996.9,N
1506000015.4,286046999.6,N
1506000035.3,286046997.2,N
1506000055.1,286046995.3,N
1506000075.8,286046997.2,N
1506000095.7,286046996.8,N
1506000115.5,286046998.0,N
1506000135.3,286046995.0,P
1506000155.2,286046995.1,P
1506000175.0,286046995.8,P
1506000175.9,286046995.8,P
1506000195.8,286046999.9,N
1506000215.6,286047000.1,N
1506000235.4,286047001.5,N
1506000255.2,286047001.4,N
1506000275.1,286047001.8,N
1506000276.0,286047001.8,N
1506000295.8,286047002.1,N
1506000315.6,286047004.1,N
1506000335.5,286047004.1,N
1506000355.3,286047003.1,N
1506000375.1,286046999.6,N
1506000395.9,286046993.1,N
1506000415.7,286046994.8,N
1506000435.5,286046995.4,N
1506000455.4,286046996.7,N
1506000475.2,286046998.1,N
1506000495.0,286046993.2,N
1506000495.9,286046993.2,N
1506000515.7,286046993.9,N
1506000535.6,286046988.6,P
1506000555.4,286046992.1,N
1506000575.2,286046996.4,N
1506000595.1,286046998.0,N
1506000596.0,286046998.0,N
1506000615.8,286046996.6,N
1506000635.6,286046996.5,N
1506000655.5,286046996.6,N
1506000675.3,286046996.5,N
1506000695.1,286046998.3,N
1506000715.9,286047000.8,N
1506000735.7,286046999.6,N
1506000755.5,286046999.6,N
1506000775.4,286047000.7,N
1506000795.2,286047001.5,N
1506000815.0,286047001.2,N
1506000815.9,286047001.2,N
1506000835.8,286046995.1,N
1506000855.6,286046999.6,N
1506000875.4,286046998.9,N
1506000895.3,286047000.6,N
1506000915.1,286046998.9,N
1506000916.0,286046998.9,N
1506000935.8,286046998.3,N
1506000955.6,286046999.1,N
1506000975.5,286046995.0,N
1506000995.3,286046994.1,N
1506001015.1,286046989.2,P
1506001035.9,286046993.7,N
1506001055.7,286046995.3,N
1506001075.5,286046996.5,N
1506001095.4,286046998.9,N
1506001115.2,286046996.8,N
1506001135.0,286046998.3,N
1506001135.9,286046998.3,N
1506001155.8,286047001.1,N
1506001175.6,286047000.0,N
1506001195.4,286047000.2,N
1506001215.3,286047000.1,N
1506001235.1,286046999.2,N
1506001236.0,286046999.2,N
1506001255.8,286046999.1,N
1506001275.7,286046997.7,N
1506001295.5,286046996.6,N
1506001315.3,286046999.6,N
1506001335.1,286046998.9,N
1506001355.9,286046999.6,N
1506001375.7,286046999.4,N
1506001395.5,286046998.8,N
1506001415.4,286046999.8,N
1506001435.2,286047002.2,N
1506001455.0,286047001.8,N
1506001455.9,286047001.8,N
1506001475.8,286047004.2,N
1506001495.6,286046995.0,N
1506001515.4,286046997.8,N
1506001535.3,286046997.8,N
1506001555.1,286046999.5,N
1506001556.0,286046999.5,N
1506001575.8,286046994.1,P
1506001595.7,286046993.2,N
1506001615.5,286046996.8,N
1506001635.3,286046999.8,N
1506001655.2,286047000.4,N
1506001675.9,286047002.7,N
1506001695.7,286047002.5,N
1506001715.6,286047000.3,N
1506001735.4,286047002.0,N
1506001755.2,286047004.4,N
1506001775.0,286047003.4,N
1506001775.9,286047003.4,N
1506001795.8,286047000.3,N
1506001815.6,286046997.5,N
1506001835.4,286046998.2,N
1506001855.3,286046998.1,N
1506001875.1,286047001.6,N
1506001895.8,286047003.9,N
1506001915.7,286047001.8,N
1506001935.5,286047003.5,N
1506001955.3,286047003.8,N
1506001975.2,286047001.9,N
1506001995.9,286047001.7,N
1506002015.7,286047002.5,N
1506002035.5,286047000.8,N
1506002055.4,286047000.9,N
1506002075.2,286047002.4,N
1506002095.0,286046999.9,N
1506002095.9,286046999.9,N
1506002115.8,286046998.3,N
1506002135.6,286046995.3,N
1506002155.4,286046999.4,N
1506002175.3,286046998.5,N
1506002195.1,286047000.3,N
1506002196.0,286047000.3,N
1506002215.8,286047000.0,N
1506002235.7,286046999.9,N
1506002255.5,286047003.9,N
1506002275.3,286047001.4,N
1506002295.2,286046997.5,N
1506002315.9,286046997.1,N
1506002335.7,286046997.8,N
1506002355.6,286047000.8,N
1506002375.4,286047002.3,N
1506002395.2,286047002.8,N
